Regional Weather Roundup
Issued by NWS Boston, MA

Current Version | Previous Version | Text Only | Print | Product List | Glossary On
Versions: 1 2 3 4 5 6 7 8 9 10 11 12 13 14 15 16 17 18 19 20 21 22 23 24 25 26 27 28 29 30 31 32 33 34 35 36 37 38 39 40 41 42 43 44 45 46 47 48 49 50
875
ASUS41 KBOX 171710
RWRBOX

REGIONAL WEATHER ROUNDUP
NATIONAL WEATHER SERVICE BOSTON/NORTON MA
1200 PM EST THU JAN 17 2019

NOTE:  "FAIR" INDICATES FEW OR NO CLOUDS BELOW 12,000 FEET WITH NO
SIGNIFICANT WEATHER AND/OR OBSTRUCTIONS TO VISIBILITY.

MAZALL-171800-
EASTERN MASSACHUSETTS

CITY           SKY/WX    TMP DP  RH WIND       PRES   REMARKS
BOSTON         FAIR      26  -8  22 NW8       30.38F WCI  18
BEVERLY        FAIR      24  -6  26 VRB7      30.37F WCI  16
LAWRENCE       FAIR      21  -5  31 W6        30.39F WCI  13
BEDFORD        FAIR      26  -5  25 NW6       30.36F WCI  19
BLUE HILL        N/A     23  -5  29 VRB5      30.32F WCI  17
NORWOOD        FAIR      29  -6  22 NW7       30.38F WCI  22
MARSHFIELD     FAIR      27  -6  24 CALM      30.38F
PLYMOUTH       FAIR      27  -5  24 W8        30.38F WCI  19
TAUNTON        FAIR      27  -4  26 N3        30.38F
NEW BEDFORD    FAIR      27   0  31 NE7       30.38F WCI  19
$$

MAZALL-171800-
CAPE COD AND THE ISLANDS

CITY           SKY/WX    TMP DP  RH WIND       PRES   REMARKS
FALMOUTH       FAIR      25  -4  28 N9        30.37F WCI  15
HYANNIS        FAIR      27   8  44 N8        30.36F WCI  19
CHATHAM        FAIR      27   9  46 VRB7      30.38F WCI  19
PROVINCETOWN   FAIR      24   8  50 N12       30.39F WCI  13
NANTUCKET      FAIR      29  10  45 N15       30.37F WCI  18
MARTHAS VNYRD  FAIR      28   3  34 N7        30.37F WCI  21
$$

MAZALL-171800-
CENTRAL AND WESTERN MASSACHUSETTS

CITY           SKY/WX    TMP DP  RH WIND       PRES   REMARKS
WORCESTER      FAIR      21  -6  30 VRB7      30.30F WCI  12
FITCHBURG      FAIR      25  -8  23 NW5       30.36F WCI  19
ORANGE         FAIR      22  -6  29 W5        30.36F WCI  16
SPRINGFIELD    PTSUNNY   22  -7  26 CALM      30.38F
WESTFIELD      FAIR      24  -9  23 CALM      30.37F
NORTH ADAMS    FAIR      19  -4  36 CALM      30.36F
PITTSFIELD     FAIR      17  -5  37 W3        30.30F
$$

RIZALL-171800-
RHODE ISLAND

CITY           SKY/WX    TMP DP  RH WIND       PRES   REMARKS
PROVIDENCE     PTSUNNY   27  -2  28 NE5       30.39F WCI  22
NEWPORT        FAIR      26  -1  31 N10       30.38F WCI  16
BLOCK ISLAND   FAIR      27   3  35 VRB6      30.38F WCI  20
SMITHFIELD     FAIR      24  -2  32 N6        30.35F WCI  17
WESTERLY       FAIR      31  -6  20 N7        30.39F WCI  24
$$

CTZALL-171800-
CONNECTICUT

CITY           SKY/WX    TMP DP  RH WIND       PRES   REMARKS
BRADLEY INTL   PTSUNNY   26  -7  23 N5        30.38F WCI  20
HARTFORD       FAIR      26  -6  24 CALM      30.40F
BRIDGEPORT     FAIR      29   0  28 NE5       30.40F WCI  24
DANBURY        FAIR      26  -1  31 NE5       30.38F WCI  20
GROTON         FAIR      30  -8  19 N7        30.38F WCI  23
NEW HAVEN      FAIR      28  -3  26 N5        30.40F WCI  23
CHESTER        FAIR      27 -13  17 N8        30.36F WCI  18
MERIDEN        FAIR      27  -5  24 VRB5      30.39F WCI  22
WILLIMANTIC    FAIR      27  -8  21 VRB6      30.38F WCI  20
OXFORD         FAIR      24   1  36 N7        30.35F WCI  16
$$

MEZ002-015-021-024-NHZ003-005-008-011-012-014-VTZ005-008-171800-
NORTHERN NEW ENGLAND

CITY           SKY/WX    TMP DP  RH WIND       PRES   REMARKS
PORTLAND ME    FAIR      18  -1  43 NW6       30.37F WCI  10
BANGOR ME      FAIR      11  -7  44 NW8       30.34F WCI  -1
CONCORD NH     FAIR      17  -1  45 NW8       30.37F WCI   7
MANCHESTER NH  FAIR      20  -7  30 NW8       30.36F WCI  10
NASHUA NH      FAIR      22  -2  35 N3        30.37F
PORTSMOUTH NH  MOSUNNY   22 -14  19 W10       30.36  WCI  11
JAFFREY NH     FAIR      20  -5  33 CALM      30.30F
KEENE NH       FAIR      19  -4  36 N6        30.37F WCI  11
BURLINGTON VT  FAIR       9  -3  58 VRB6      30.41F WCI  -1
MT. WASHINGTON MOSUNNY   -9 -22  54 NW43        N/A  WCI -43
$$

NYZ052-076-171800-
EASTERN NEW YORK

CITY           SKY/WX    TMP DP  RH WIND       PRES   REMARKS
ALBANY         PTSUNNY   20  -3  36 CALM      30.42F
NEW YORK CITY  PTSUNNY   29   9  43 NE8       30.40F WCI  21
$$

ANZALL-171800-
MARINE OBSERVATIONS

STATION/POSITION TIME  TEMP    WIND        PRES    VSBY  WAVE
                       AIR SEA DIR/SP/G                  HT/PER
                 (UTC) (F)     (DEG/KT/KT) (MB)    (MI)  (FT/S)
BOSTON BUOY      1650   22 42  300/ 10/ 12 1029.0F         2/ 3
BUZZARDS BAY     1600   24     350/  6/  7 1030.0F
NANTUCKET SOUND  1650   25 36  350/ 14/ 17 1028.7F         2/ 3
MASS BAY-STELLWA 1604   20 42  320/ 10/ 16 1028.9R  1 7/8  2/ 5
ISLE OF SHOALS   1600   18     280/  9/ 11 1028.9F
S OF BLOCK IS    1700      45                N/A           3/ 4
$$

......................KEY.........................
  SKY/WX - SKY CONDITION/PRESENT WEATHER
  TMP    - TEMPERATURE IN FAHRENHEIT
  DWPT   - DEWPOINT IN FAHRENHEIT
  RH     - RELATIVE HUMIDITY IN PERCENT
  WIND   - DIRECTION AND SPEED IN MPH
  PRES   - MEAN SEA LEVEL PRESSURE IN INCHES OF HG
  WCI    - WIND CHILL INDEX
  VSB    - VISIBILITY IN MILES
  HX     - HEAT INDEX
  TC     - TEMPERATURE IN CELSIUS
  VRB    - VARIABLE WIND DIRECTION
  N/A    - NOT AVAILABLE




USA.gov is the U.S. government's official web portal to all federal, state and local government web resources and services.